User: anonymous   Login
Location: Mentone
(34.5413°N, 85.5351°W)
Time: 08:19:53
(UTC-05:00)
Language:

ERBS - Orbit

View from above orbital plane
View from above orbital plane
View from above satellite
View from above satellite

Ground track
Ground track

The orbit data is extracted from the following two-line orbital elements,

1 15354U 84108B   17086.52364611 +.00003943 +00000-0 +96787-4 0  9999
2 15354 057.0075 129.8505 0008068 338.0043 022.0665 15.43080655785320
Epoch (UTC): 27 March 2017 12:34:03
Eccentricity: 0.0008068
inclination: 57.0075°
perigee height: 431 km
apogee height: 442 km
right ascension of ascending node: 129.8505°
argument of perigee: 338.0043°
revolutions per day: 15.43080655
mean anomaly at epoch: 22.0665°
orbit number at epoch: 78532

The dashed part of the orbit path shows where the satellite is in the earth's shadow,  

DLR